Baker Lake,

8:43 AM CDT on July 21, 2017 (GMT -0500)
Baker Lake

Weather History for CYBK - April, 2013

Change the Weather History Date:

Thursday, April 11, 2013

  Actual Average Record
Temperature  
Mean Temperature 10 °F -  
Max Temperature 20 °F 15 °F 23 °F (2007)
Min Temperature 0 °F -1 °F -25 °F (2002)
Degree Days  
Heating Degree Days 55    
Moisture  
Dew Point 7 °F    
Average Humidity 79    
Maximum Humidity 86    
Minimum Humidity 61    
Precipitation  
Precipitation 0.00 in 0.02 in - ()
Sea Level Pressure  
Sea Level Pressure 30.31 in    
Wind  
Wind Speed 10 mph ()    
Max Wind Speed 24 mph    
Max Gust Speed -    
Visibility 18.2 miles    
Events      
Averages and records for this station are not official NWS values.
T = Trace of Precipitation, MM = Missing Value Source: Averaged Metar Reports

Daily Weather History Graph

Daily Weather History Graph

Search for Another Location

Airport or City:

Trip Planner

Search our weather history database for the weather conditions in past years. The results will help you decide how hot, cold, wet, or windy it might be!

Date:

Astronomy

Apr. 11, 2013 Rise Set
Actual Time 6:05 AM CDT 8:47 PM CDT
Civil Twilight 5:11 AM CDT 9:41 PM CDT
Nautical Twilight 3:55 AM CDT 10:59 PM CDT
Astronomical Twilight 1:57 AM CDT 12:52 AM CDT
Moon 6:06 AM CDT (4/11) 11:08 PM CDT (4/11)
Length of Visible Light 16h 30m
Length of Day
14h 42m
New Moon, 2% of the Moon is Illuminated
Apr 11
New Moon
Apr 18
First Quarter
Apr 25
Full
May 2
Last Quarter
May 9
New

Hourly Weather History & Observations

Time (CDT) Temp. Windchill Dew Point Humidity Pressure Visibility Wind Dir Wind Speed Gust Speed Precip Events Conditions
12:00 AM 3.2 °F -9.1 °F -4.0 °F 72% 30.32 in 15.0 mi ESE 6.9 mph - N/A   Partly Cloudy
1:00 AM 6 °F - -1 °F 61% 30.32 in 15 mi ESE 8.1 mph - -   Scattered Clouds
1:00 AM 5.0 °F -10.8 °F -0.4 °F 78% 30.32 in 15.0 mi SE 11.5 mph - N/A   Partly Cloudy
2:00 AM 3.2 °F -10.3 °F -4.0 °F 72% 30.32 in 15.0 mi ESE 8.1 mph - N/A   Partly Cloudy
3:00 AM 5.0 °F -12.3 °F -0.4 °F 78% 30.32 in 15.0 mi SE 13.8 mph - N/A   Partly Cloudy
4:00 AM 6.8 °F -11.3 °F -0.4 °F 72% 30.31 in 15.0 mi SE 16.1 mph - N/A   Partly Cloudy
5:00 AM 6.8 °F -4.8 °F -0.4 °F 72% 30.31 in 15.0 mi East 6.9 mph - N/A   Mostly Cloudy
6:00 AM 5.0 °F -6.9 °F -0.4 °F 78% 30.30 in 20.0 mi ESE 6.9 mph - N/A   Mostly Cloudy
7:00 AM 4 °F - -1 °F 70% 30.30 in 19 mi ESE 12.7 mph - -   Scattered Clouds
7:00 AM 5.0 °F -11.6 °F -0.4 °F 78% 30.30 in 20.0 mi SE 12.7 mph - N/A   Mostly Cloudy
8:00 AM 5.0 °F -5.6 °F -0.4 °F 78% 30.30 in 20.0 mi ESE 5.8 mph - N/A   Mostly Cloudy
9:00 AM 8.6 °F -1.3 °F 3.2 °F 79% 30.29 in 20.0 mi ENE 5.8 mph - N/A   Mostly Cloudy
10:00 AM 12.2 °F -3.7 °F 6.8 °F 79% 30.30 in 20.0 mi SSE 15.0 mph - N/A   Mostly Cloudy
12:00 PM 15.8 °F -0.2 °F 12.2 °F 86% 30.30 in 20.0 mi SSE 17.3 mph - N/A   Overcast
1:00 PM 17 °F - 12 °F 72% 30.30 in 19 mi SE 24.2 mph - -   Overcast
1:00 PM 17.6 °F -0.3 °F 12.2 °F 79% 30.30 in 20.0 mi SE 24.2 mph - N/A   Overcast
2:00 PM 17.6 °F 0.1 °F 14.0 °F 86% 30.30 in 20.0 mi SE 23.0 mph - N/A   Overcast
3:00 PM 19.4 °F 4.1 °F 14.0 °F 80% 30.31 in 20.0 mi SE 18.4 mph - N/A   Overcast
4:00 PM 19.4 °F 5.5 °F 15.8 °F 86% 30.30 in 20.0 mi SE 15.0 mph - N/A   Overcast
5:00 PM 21.2 °F 16.4 °F 15.8 °F 80% 30.30 in 20.0 mi SSE 3.5 mph - N/A   Overcast
6:00 PM 19.4 °F 7.2 °F 15.8 °F 86% 30.30 in 20.0 mi South 11.5 mph - N/A   Overcast
7:00 PM 20 °F - 16 °F 78% 30.30 in 19 mi SE 18.4 mph - -   Overcast
7:00 PM 19.4 °F 4.1 °F 15.8 °F 86% 30.30 in 20.0 mi SE 18.4 mph - N/A   Overcast
8:00 PM 19.4 °F 9.5 °F 15.8 °F 86% 30.32 in 20.0 mi SSE 8.1 mph - N/A   Overcast
9:00 PM 17.6 °F 2.2 °F 14.0 °F 86% 30.31 in 20.0 mi SE 17.3 mph - N/A   Overcast
10:00 PM 17.6 °F 6.4 °F 14.0 °F 86% 30.33 in 15.0 mi SE 9.2 mph - N/A   Overcast
11:00 PM 15.8 °F 5.1 °F 12.2 °F 86% 30.33 in 15.0 mi ESE 8.1 mph - N/A   Mostly Cloudy